Regional Weather Roundup
Issued by NWS

Home | Current Version | Previous Version | Text Only | Print | Product List | Glossary On
Versions: 1 2 3 4 5 6 7 8 9 10 11 12 13 14 15 16 17 18 19 20 21 22 23 24 25 26 27 28 29 30 31 32 33 34 35 36 37 38 39 40 41 42 43 44 45 46 47 48 49 50
000
ASUS43 KLSX 250107
RWRMO

WEATHER SUMMARY FOR MISSOURI
NATIONAL WEATHER SERVICE SPRINGFIELD MO
700 PM CST WED DEC 24 2014

NOTE: "FAIR" INDICATES FEW OR NO CLOUDS BELOW 12,000 FEET WITH NO
       SIGNIFICANT WEATHER AND/OR OBSTRUCTIONS TO VISIBILITY.
       CURRENT SKY AND/OR WEATHER CONDITIONS ARE NOT AVAILABLE FOR
       CHILLICOTHE AND FARMINGTON.

MOZ001>031-035>038-043-044-053-054-250200-
...NORTHERN AND WESTERN MISSOURI...

CITY           SKY/WX    TMP DP  RH WIND       PRES   REMARKS
KANSAS CTY INT CLOUDY    34  29  82 W9        29.83S WCI  27
KANSAS C DTWN  CLOUDY    36  28  73 W8        29.85R WCI  30
LEE`S SUMMIT   CLOUDY    35  28  75 SW9       29.85R WCI  28
ST JOSEPH      CLOUDY    34  29  82 SW12      29.84R WCI  25
CHILLICOTHE      N/A     36  29  75 W7        29.82S
KIRKSVILLE     CLOUDY    35  31  85 W10       29.78R WCI  27

$$
MOZ066>068-077>081-088>096-101>105-250200-
...SOUTHWEST MISSOURI...

CITY           SKY/WX    TMP DP  RH WIND       PRES   REMARKS
SPRINGFIELD    CLOUDY    37  30  75 W8        29.88R
JOPLIN         CLOUDY    36  30  79 W9        29.93R WCI  29

$$
MOZ032>034-039>042-045>050-055>058-069>072-250200-
...CENTRAL MISSOURI...

CITY           SKY/WX    TMP DP  RH WIND       PRES   REMARKS
COLUMBIA       CLOUDY    37  33  85 W15       29.81R WCI  28
JEFFERSON CITY CLOUDY    38  33  82 W9        29.83R
ROLLA          CLOUDY    35  32  88 W16       29.80R WCI  25
SEDALIA        CLOUDY    37  31  78 W8        29.84R
WHITEMAN AFB   CLOUDY    36  31  82 W13       29.83S WCI  27
OSAGE BEACH    CLOUDY    37  30  75 W6        29.84R

$$
MOZ051-052-059>065-250200-
...EAST CENTRAL MISSOURI...

CITY           SKY/WX    TMP DP  RH WIND       PRES   REMARKS
ST LOUIS INTL  CLOUDY    39  33  79 W13       29.79R
SPIRIT OF STL  LGT RAIN  38  34  85 W9        29.79R
ST CHARLES     CLOUDY    38  34  85 W16G23    29.78R WCI  29

$$
MOZ072>076-082>087-097>100-106>115-250200-
...SOUTH CENTRAL AND SOUTHEAST MISSOURI...

CITY           SKY/WX    TMP DP  RH WIND       PRES   REMARKS
CAPE GIRARDEAU CLOUDY    40  36  86 W8        29.84R
FARMINGTON     CLOUDY    37  32  81 W7        29.83R
POPLAR BLUFF   CLOUDY    41  33  73 W6        29.86R
WEST PLAINS    CLOUDY    37  30  75 W8        29.87R

$$



USA.gov is the U.S. government's official web portal to all federal, state and local government web resources and services.